Terug naar catalogus

NOAA 16 DEB

ActiefSSO
NORAD 41059·DEBRIS·🇺🇸 United States

Gelanceerd Sep 21, 2000 vanaf Vandenberg Space Force Base

Loading…

Volgende Passages (komende 24 uur)

TLE

VersSource: Space-Track

Epoch: Sep 14, 2026, 22:03 UTC

1 41059U 00055S   26257.91909866  .00000472  00000-0  24105-3 0  9997
2 41059  98.6154 326.3613 0021150  27.2271 333.0010 14.20071724558723

Volg NOAA 16 DEB in realtime met AllMySat

Download on the App Store